[[{"header":{"parameterUnit":"m.s-1","parameterCategory":1,"la1":30.2991,"la2":30.254,"lo1":-89.0895,"lo2":-89.0444,"dy":0.0017,"dx":0.0017,"nx":28,"ny":28,"refTime":"2025-03-18T03:00:00:Z","depth":0,"parameterNumber":2,"parameterNumberName":"U-component_of_WINDS"},"data":[0,0,0,0,0,0,0,0,0,0,0,0,0,0,0,0,0,0,0,0,0,0,0,0,0,0,0,0,0,0,0,0,0,0,0,0,0,0,0,0,0,0,0,0,0,0,0,0,0,0,0,0,0,0,0,0,0,0,-0.7781,-0.7782,0,-0.7828,-0.7829,-0.7829,-0.7854,-0.7854,-0.7854,-0.7854,-0.7898,-0.7899,-0.79,0,0,0,0,0,0,0,0,0,0,0,0,0,-0.7706,-0.7708,-0.7781,-0.7782,-0.7782,-0.7828,-0.7829,-0.7829,-0.7854,-0.7854,-0.7854,-0.7854,-0.7897,-0.7899,-0.79,0,0,0,0,0,0,0,0,0,0,0,0,0,-0.7745,-0.7708,-0.7781,-0.78,-0.7802,-0.7828,-0.7829,-0.783,-0.7854,-0.7854,-0.7854,-0.7854,-0.7897,-0.7899,-0.79,-0.791,0,0,-0.7906,-0.7906,0,0,0,0,0,0,0,0,-0.7742,-0.7747,-0.7797,-0.7799,-0.7801,-0.7835,-0.7819,-0.7856,-0.7854,-0.7834,-0.7854,-0.7854,-0.7877,-0.788,-0.7889,-0.7912,-0.7914,-0.7906,-0.7907,-0.7908,-0.7908,0,0,0,0,0,0,0,-0.774,-0.7745,-0.78,-0.7797,-0.78,-0.7804,-0.781,-0.7826,-0.7854,-0.7836,-0.7838,-0.7843,-0.7878,-0.7887,-0.789,-0.7914,-0.7906,-0.7907,-0.7908,-0.7909,-0.7944,-0.7944,0,0,0,0,0,0,-0.7735,-0.7743,-0.7798,-0.7801,-0.7771,-0.7805,-0.7812,-0.7824,-0.7854,-0.7859,-0.7843,-0.7844,-0.7884,-0.7888,-0.7892,-0.7903,-0.7908,-0.7909,-0.791,-0.7945,-0.7944,-0.7944,0,0,0,0,0,0,-0.7733,-0.7739,-0.7796,-0.7773,-0.778,-0.7807,-0.7821,-0.7825,-0.7834,-0.786,-0.7864,-0.7847,-0.7884,-0.7889,-0.7905,-0.7905,-0.791,-0.7911,-0.7945,-0.7944,-0.7944,-0.7926,0,0,0,0,0,0,-0.7731,-0.7739,-0.7744,-0.7773,-0.7781,-0.781,-0.7821,-0.7826,-0.7838,-0.7839,-0.7865,-0.7869,-0.7885,-0.7902,-0.7906,-0.7907,-0.7913,-0.7945,-0.7945,-0.7944,-0.7927,-0.7926,-0.7924,0,0,0,0,0,-0.7728,-0.7737,-0.7744,-0.7751,-0.7789,-0.7811,-0.7815,-0.7834,-0.7838,-0.7842,-0.7858,-0.7869,-0.7904,-0.7903,-0.7909,-0.791,-0.7945,-0.7945,-0.7944,-0.7928,-0.7926,-0.7925,0,0,0,0,0,0,-0.7707,-0.7741,-0.775,-0.7769,-0.7787,-0.7815,-0.7821,-0.7832,-0.7848,-0.7849,-0.787,-0.7875,-0.7889,-0.7901,-0.79,-0.7919,-0.7925,-0.7926,-0.7911,-0.7909,-0.7908,-0.7905,-0.7914,0,0,0,0,0,-0.7705,-0.7721,-0.7749,-0.7763,-0.7772,-0.7795,-0.7805,-0.7817,-0.7836,-0.7844,-0.7861,-0.7877,-0.7892,-0.7901,-0.7917,-0.7929,-0.7933,-0.7932,-0.793,-0.7929,-0.793,-0.7935,-0.7934,-0.7944,-0.7944,-0.7944,0,0,-0.7701,-0.7721,-0.773,-0.776,-0.7775,-0.7789,-0.7801,-0.7816,-0.7826,-0.7846,-0.7861,-0.7874,-0.7894,-0.7907,-0.7914,-0.7918,-0.7928,-0.7929,-0.7928,-0.7929,-0.7934,-0.7933,-0.7932,-0.7944,-0.7944,-0.7944,0,0,-0.77,-0.7717,-0.773,-0.7745,-0.7768,-0.7782,-0.7785,-0.7811,-0.782,-0.7837,-0.7851,-0.7862,-0.7887,-0.79,-0.791,-0.791,-0.792,-0.7914,-0.7907,-0.7912,-0.7911,-0.791,-0.7909,-0.7908,-0.7915,-0.7914,-0.7914,0,-0.7691,-0.7715,-0.7735,-0.7748,-0.776,-0.7778,-0.7789,-0.7802,-0.7828,-0.7835,-0.7839,-0.787,-0.7884,-0.79,-0.7899,-0.7907,-0.7909,-0.7912,-0.791,-0.7909,-0.7909,-0.7908,-0.7907,-0.7914,-0.7914,-0.7914,-0.7914,0,-0.7701,-0.7717,-0.7724,-0.7749,-0.7761,-0.7774,-0.7793,-0.7803,-0.7813,-0.7827,-0.7841,-0.7859,-0.7877,-0.7882,-0.7892,-0.7898,-0.7899,-0.7906,-0.7913,-0.7907,-0.7906,-0.7906,-0.7912,-0.7913,-0.7913,-0.7913,0,0,-0.7691,-0.7725,-0.7727,-0.7737,-0.7763,-0.7774,-0.7786,-0.7804,-0.7811,-0.7827,-0.7836,-0.7856,-0.7862,-0.7873,-0.7885,-0.7889,-0.7885,-0.7895,-0.7896,-0.7892,-0.789,-0.7884,-0.7884,-0.7892,-0.7892,-0.7892,-0.7888,0,-0.7692,-0.7716,-0.7733,-0.7749,-0.7762,-0.7778,-0.7788,-0.7803,-0.7815,-0.7826,-0.7839,-0.7853,-0.786,-0.7867,-0.7871,-0.7885,-0.7885,-0.7886,-0.7899,-0.7899,-0.7893,-0.7884,-0.7878,-0.7874,-0.7888,-0.7888,-0.7888,0,-0.7698,-0.7714,-0.7732,-0.7753,-0.7759,-0.7768,-0.7784,-0.7796,-0.7812,-0.782,-0.7831,-0.7843,-0.7854,-0.7859,-0.7873,-0.7872,-0.7878,-0.7885,-0.7886,-0.7887,-0.7893,-0.7884,-0.7873,-0.7872,-0.7888,-0.7888,-0.7888,0,-0.7686,-0.7712,-0.7726,-0.7734,-0.776,-0.7765,-0.7776,-0.7792,-0.7801,-0.7815,-0.782,-0.7835,-0.7842,-0.7852,-0.7867,-0.787,-0.7878,-0.7885,-0.7884,-0.7883,-0.7885,-0.7885,-0.7874,-0.789,-0.789,-0.789,-0.789,0,-0.7686,-0.7696,-0.772,-0.7728,-0.7739,-0.7756,-0.7766,-0.7777,-0.7791,-0.78,-0.7815,-0.7822,-0.7841,-0.7851,-0.7862,-0.787,-0.7874,-0.7879,-0.7882,-0.7878,-0.7877,-0.7882,-0.7882,-0.789,-0.789,-0.789,-0.789,0,-0.7676,-0.7693,-0.7708,-0.773,-0.7736,-0.7742,-0.776,-0.7767,-0.7779,-0.779,-0.7794,-0.7812,-0.7824,-0.7839,-0.7855,-0.7863,-0.7869,-0.7874,-0.7864,-0.7865,-0.7863,-0.7862,-0.7854,-0.7853,-0.7871,-0.787,-0.787,0,-0.7675,-0.7682,-0.7705,-0.7712,-0.7722,-0.7734,-0.7743,-0.7759,-0.7767,-0.7785,-0.7789,-0.7802,-0.7813,-0.783,-0.7844,-0.7856,-0.7861,-0.7857,-0.7863,-0.7857,-0.7859,-0.7858,-0.7858,-0.7856,-0.7855,-0.7855,-0.7855,0,-0.767,-0.7677,-0.769,-0.7704,-0.7714,-0.7727,-0.7739,-0.7744,-0.7763,-0.7771,-0.7783,-0.7791,-0.7807,-0.7819,-0.7832,-0.7841,-0.7851,-0.7853,-0.7853,-0.7849,-0.7842,-0.7844,-0.7859,-0.7853,-0.7853,-0.7854,-0.7854,-0.7854,-0.7663,-0.767,-0.7686,-0.7698,-0.7709,-0.772,-0.7727,-0.774,-0.775,-0.7765,-0.7774,-0.7785,-0.7798,-0.7817,-0.7825,-0.7833,-0.7837,-0.7837,-0.7837,-0.7837,-0.7835,-0.7841,-0.7836,-0.7836,-0.7836,-0.7836,-0.7836,0,-0.7658,-0.7668,-0.768,-0.7697,-0.7706,-0.7714,-0.7728,-0.7734,-0.7744,-0.7756,-0.7766,-0.7779,-0.7789,-0.7803,-0.7815,-0.7818,-0.7822,-0.782,-0.782,-0.7821,-0.7832,-0.783,-0.7816,-0.7816,-0.7816,-0.7816,-0.7816,-0.7816,-0.7656,-0.7667,-0.7675,-0.7691,-0.7701,-0.7712,-0.7719,-0.7728,-0.7737,-0.7751,-0.776,-0.7769,-0.7781,-0.7793,-0.7802,-0.7806,-0.7809,-0.7805,-0.781,-0.7819,-0.7821,-0.7822,-0.7821,-0.7806,-0.7806,-0.7799,-0.7799,-0.7798]},{"header":{"parameterUnit":"m.s-1","parameterCategory":1,"la1":30.2991,"la2":30.254,"lo1":-89.0895,"lo2":-89.0444,"dy":0.0017,"dx":0.0017,"nx":28,"ny":28,"refTime":"2025-03-18T03:00:00:Z","depth":0,"parameterNumber":3,"parameterNumberName":"V-component_of_WINDS"},"data":[0,0,0,0,0,0,0,0,0,0,0,0,0,0,0,0,0,0,0,0,0,0,0,0,0,0,0,0,0,0,0,0,0,0,0,0,0,0,0,0,0,0,0,0,0,0,0,0,0,0,0,0,0,0,0,0,0,0,5.9418,5.9418,0,5.9412,5.9412,5.9411,5.94,5.94,5.94,5.94,5.9389,5.9389,5.9389,0,0,0,0,0,0,0,0,0,0,0,0,0,5.9419,5.9419,5.9418,5.9418,5.9418,5.9412,5.9412,5.9411,5.94,5.94,5.94,5.94,5.9389,5.9389,5.9389,0,0,0,0,0,0,0,0,0,0,0,0,0,5.9416,5.9419,5.9418,5.9412,5.9411,5.9412,5.9412,5.9411,5.94,5.94,5.94,5.94,5.9389,5.9389,5.9389,5.9394,0,0,5.9388,5.9388,0,0,0,0,0,0,0,0,5.9416,5.9416,5.9413,5.9412,5.9412,5.9407,5.9408,5.9405,5.94,5.9404,5.94,5.9399,5.9395,5.9394,5.9393,5.9393,5.9393,5.9388,5.9388,5.9388,5.9388,0,0,0,0,0,0,0,5.9417,5.9416,5.9415,5.9413,5.9412,5.9409,5.9408,5.9407,5.9401,5.9404,5.9403,5.9403,5.9394,5.9394,5.9393,5.9392,5.9388,5.9388,5.9388,5.9388,5.9399,5.9399,0,0,0,0,0,0,5.9418,5.9417,5.9416,5.9415,5.9414,5.9409,5.9408,5.9408,5.9401,5.94,5.9403,5.9402,5.9394,5.9393,5.9393,5.94,5.9388,5.9388,5.9388,5.9398,5.9399,5.9399,0,0,0,0,0,0,5.9418,5.9418,5.9416,5.9416,5.9415,5.9409,5.941,5.9408,5.9408,5.9401,5.9399,5.9404,5.9394,5.9393,5.9394,5.9399,5.9388,5.9388,5.9398,5.9398,5.9399,5.9413,0,0,0,0,0,0,5.9418,5.9418,5.942,5.9416,5.9415,5.9418,5.941,5.9409,5.9408,5.9407,5.9401,5.9399,5.9393,5.9395,5.9394,5.9399,5.9388,5.9397,5.9398,5.9399,5.9412,5.9414,5.9415,0,0,0,0,0,5.9419,5.9423,5.9421,5.942,5.9418,5.9419,5.9418,5.9413,5.9408,5.941,5.9406,5.9399,5.9399,5.9395,5.9394,5.9399,5.9397,5.9398,5.9399,5.9411,5.9413,5.9415,0,0,0,0,0,0,5.9426,5.9422,5.9419,5.9423,5.9422,5.9417,5.9419,5.9415,5.9413,5.9412,5.9404,5.9403,5.9406,5.9402,5.9398,5.9405,5.9397,5.9398,5.9407,5.9409,5.9411,5.9411,5.9387,0,0,0,0,0,5.9428,5.943,5.9426,5.943,5.9429,5.9425,5.9424,5.9421,5.9418,5.9417,5.9413,5.941,5.9409,5.9409,5.9407,5.9412,5.9411,5.9415,5.9416,5.9418,5.9418,5.9423,5.9425,5.9402,5.9402,5.9402,0,0,5.9432,5.9431,5.9432,5.9431,5.943,5.9432,5.9424,5.9425,5.9427,5.9417,5.9419,5.9416,5.9412,5.9416,5.9417,5.9413,5.9425,5.9419,5.942,5.942,5.9424,5.9426,5.9428,5.9402,5.9402,5.9402,0,0,5.9441,5.944,5.9444,5.9443,5.9442,5.9439,5.944,5.9437,5.9435,5.9438,5.9431,5.9432,5.9431,5.9429,5.9428,5.944,5.9434,5.944,5.9449,5.9453,5.9455,5.9456,5.9462,5.9464,5.944,5.944,5.944,0,5.9446,5.9449,5.9445,5.9449,5.9449,5.9443,5.9447,5.9446,5.9444,5.9444,5.944,5.9441,5.9437,5.9442,5.9445,5.9444,5.9445,5.944,5.9455,5.9456,5.9458,5.9463,5.9465,5.9441,5.9441,5.9441,5.9441,0,5.9456,5.9459,5.9462,5.9463,5.9464,5.9467,5.9464,5.9465,5.9462,5.946,5.9463,5.946,5.9459,5.946,5.9455,5.9464,5.9462,5.9456,5.9449,5.9461,5.9466,5.9468,5.9442,5.9442,5.9442,5.9442,0,0,5.9467,5.9469,5.947,5.9471,5.9471,5.9472,5.9476,5.9478,5.948,5.9479,5.9482,5.9483,5.9479,5.9478,5.9474,5.9477,5.9489,5.9472,5.9471,5.9476,5.95,5.9505,5.9507,5.9486,5.9486,5.9486,5.9501,0,5.9476,5.9484,5.9482,5.949,5.9493,5.9489,5.9492,5.9492,5.9491,5.9493,5.9491,5.9493,5.9486,5.9486,5.949,5.9487,5.9494,5.9486,5.9489,5.9489,5.949,5.9509,5.9513,5.9527,5.9503,5.9503,5.9503,0,5.9487,5.949,5.9499,5.9501,5.9502,5.9505,5.9508,5.951,5.951,5.9509,5.951,5.9506,5.951,5.9503,5.9509,5.9504,5.9505,5.9504,5.9505,5.9505,5.9497,5.9511,5.9531,5.9534,5.9506,5.9506,5.9506,0,5.9496,5.9502,5.9508,5.9509,5.9511,5.9514,5.9515,5.9516,5.9517,5.9519,5.9521,5.9522,5.9523,5.9525,5.9521,5.9516,5.9529,5.9521,5.9528,5.9528,5.953,5.953,5.9552,5.953,5.953,5.953,5.953,0,5.9506,5.9512,5.9513,5.9517,5.9524,5.9522,5.9528,5.9528,5.953,5.9534,5.9529,5.9533,5.9528,5.9532,5.9529,5.9536,5.9536,5.9535,5.9534,5.9536,5.9536,5.9536,5.9535,5.9531,5.9531,5.9531,5.953,0,5.9517,5.9517,5.9525,5.9527,5.9528,5.9533,5.9535,5.9539,5.9539,5.9544,5.9545,5.9544,5.9548,5.9546,5.9549,5.9547,5.9556,5.9554,5.9557,5.9556,5.9564,5.9564,5.9587,5.9591,5.9566,5.9566,5.9567,0,5.9523,5.9528,5.9533,5.9536,5.9538,5.9543,5.9546,5.9545,5.9548,5.9551,5.9555,5.9559,5.9562,5.9569,5.9568,5.9571,5.9569,5.9578,5.957,5.9572,5.9571,5.9571,5.9572,5.9579,5.9579,5.958,5.958,0,5.9535,5.9537,5.9542,5.9548,5.9552,5.9556,5.956,5.9562,5.9562,5.9566,5.9571,5.9574,5.9579,5.9584,5.9587,5.9587,5.9584,5.9583,5.9585,5.9586,5.9588,5.9589,5.9562,5.9582,5.9582,5.9581,5.9581,5.9581,5.9545,5.955,5.9555,5.9561,5.9565,5.9569,5.9574,5.9576,5.9581,5.9586,5.9585,5.9592,5.9595,5.9599,5.96,5.9605,5.9602,5.9604,5.9605,5.9606,5.9608,5.9588,5.9606,5.9606,5.9606,5.9606,5.9606,0,5.9557,5.9561,5.9568,5.9575,5.958,5.9579,5.9583,5.9588,5.9594,5.9598,5.9603,5.961,5.9615,5.9616,5.9621,5.9625,5.9624,5.9627,5.9626,5.9627,5.961,5.9608,5.9628,5.9628,5.9628,5.9628,5.9628,5.9628,5.9565,5.9574,5.9576,5.9588,5.9592,5.96,5.9603,5.9607,5.9611,5.962,5.9625,5.9627,5.963,5.9635,5.9641,5.9641,5.9643,5.9647,5.9646,5.963,5.9628,5.9626,5.9624,5.9647,5.9647,5.9663,5.9663,5.9663]}]]